User: anonymous   Login
Location: Betra
(48.4113°N, 8.6634°E)
Time: 16:47:02
(UTC+00:00)
Language:

BREEZE-M R/B - Orbit

View from above orbital plane
View from above orbital plane
View from above satellite
View from above satellite

Ground track
Ground track

The orbit data is extracted from the following two-line orbital elements,

1 32709U 08011B   24195.33664530  .00000651  00000-0  66758-2 0  9998
2 32709  48.9224 209.8205 6480175  40.4492 353.0157  3.07963603124471
Epoch (UTC): 13 July 2024 08:04:46
Eccentricity: 0.6480175
inclination: 48.9224°
perigee height: 646 km
apogee height: 26509 km
right ascension of ascending node: 209.8205°
argument of perigee: 40.4492°
revolutions per day: 3.07963603
mean anomaly at epoch: 353.0157°
orbit number at epoch: 12447

The dashed part of the orbit path shows where the satellite is in the earth's shadow,  

DLR